Flag for United Kingdom Weather past 2 weeks in Slough, England, United Kingdom

Now
70 °F

Scattered clouds.


Feels Like: 70 °F
Forecast: 60 / 73 °F
Wind: 7 mph from Southeast

Location: London City Airport

Current Time: Aug 5, 2015 at 11:37:25 AM

Latest Report: Aug 5, 2015 at 11:20 AM


Visibility: N/A

Pressure: 29.95 "Hg

Humidity: 53%

Dew point: 52 °F

Location of SloughLocation

Historic Weather in Slough — Graph

°F

Slough temperature yesterday

Maximum temperature yesterday: 72 °F (at 4:20 PM)
Minimum temperature yesterday: 59 °F (at 5:20 AM)
Average temperature yesterday: 65 °F

Past Weeks' High & Low Weather Summary

 TemperatureHumidityPressure
High79 °F (Jul 21, 2:50 PM)94% (Jul 24, 4:50 PM)30.15 "Hg (Jul 24, 4:50 PM)
Low52 °F (Jul 31, 4:50 AM)32% (Aug 2, 3:50 PM)29.42 "Hg (Jul 26, 9:20 PM)
Average64 °F63%29.89 "Hg
* Reported Jul 21 10:20 AM — Aug 5 10:20 AM, Slough, Weather by CustomWeather, © 2015

Note: Actual official high and low records may vary slightly from our data, if they occured in-between our weather recording intervals... More about our weather records

Advertising

Slough weather history for previous 24 hours

 ConditionsComfort  
Time TempWeatherWind HumidityBarometerVisibility
10:20 AM
Wed, Aug 5
68 °FPassing clouds.7 mph53%29.98 "HgN/A
9:50 AM66 °FPassing clouds.6 mph60%29.98 "HgN/A
9:20 AM66 °FPassing clouds.5 mph60%29.98 "HgN/A
8:50 AM64 °FPassing clouds.6 mph64%29.98 "HgN/A
8:20 AM63 °FPassing clouds.7 mph73%29.98 "HgN/A
7:50 AM63 °FPassing clouds.7 mph73%29.98 "HgN/A
7:20 AM63 °FPassing clouds.5 mph73%29.98 "HgN/A
6:50 AM61 °FPassing clouds.8 mph77%29.98 "HgN/A
5:50 AM61 °FClear.7 mph72%29.98 "Hg10 mi
5:20 AM61 °FCool.7 mph72%29.98 "HgN/A
4:50 AM61 °FCool.6 mph72%29.98 "HgN/A
4:20 AM61 °FCool.6 mph72%29.98 "HgN/A
3:50 AM61 °FCool.7 mph72%30.01 "HgN/A
3:20 AM61 °FFog.5 mph72%30.01 "Hg3 mi
2:50 AM61 °FCool.6 mph72%29.98 "HgN/A
2:20 AM61 °FCool.7 mph72%29.98 "HgN/A
1:50 AM61 °FCool.8 mph72%29.98 "HgN/A
1:20 AM61 °FCool.6 mph72%29.98 "HgN/A
12:50 AM61 °FCool.7 mph68%30.01 "HgN/A
12:20 AM61 °FCool.8 mph68%29.98 "HgN/A
11:20 PM
Tue, Aug 4
61 °FCool.9 mph68%30.01 "HgN/A
10:50 PM63 °FMild.10 mph64%30.01 "HgN/A
10:20 PM63 °FMild.15 mph64%30.01 "HgN/A
9:50 PM63 °FMild.13 mph64%30.01 "HgN/A
9:20 PM63 °FMild.13 mph64%29.98 "HgN/A
8:20 PM64 °FPassing clouds.17 mph56%29.98 "HgN/A
7:50 PM66 °FSunny.16 mph49%29.95 "Hg10 mi
7:20 PM68 °FSunny.16 mph46%29.95 "Hg10 mi
6:50 PM68 °FPassing clouds.17 mph49%29.95 "HgN/A
6:20 PM68 °FScattered clouds.15 mph49%29.95 "HgN/A
5:50 PM70 °FScattered clouds.17 mph46%29.95 "HgN/A
5:20 PM70 °FPassing clouds.18 mph46%29.95 "HgN/A
4:50 PM70 °FPartly sunny.17 mph46%29.92 "HgN/A
4:20 PM72 °FPartly sunny.14 mph44%29.92 "HgN/A
3:20 PM70 °FPartly sunny.18 mph46%29.92 "HgN/A
2:50 PM70 °FPartly sunny.17 mph46%29.92 "HgN/A
2:20 PM68 °FPassing clouds.16 mph49%29.92 "HgN/A
1:50 PM68 °FPassing clouds.16 mph53%29.92 "HgN/A
12:50 PM68 °FPartly sunny.15 mph53%29.92 "HgN/A
12:20 PM66 °FPartly sunny.18 mph56%29.92 "HgN/A
11:50 AM70 °FPartly sunny.17 mph46%29.89 "HgN/A
11:20 AM70 °FPassing clouds.16 mph46%29.89 "HgN/A
Weather by CustomWeather, © 2015

See weather overviewHow to use our weather pages